Regional Weather Roundup
Issued by NWS Kansas City/Pleasant Hill, MO

Home | Current Version | Previous Version | Graphics & Text | Print | Product List | Glossary Off
Versions: 1 2 3 4 5 6 7 8 9 10 11 12 13 14 15 16 17 18 19 20 21 22 23 24 25 26 27 28 29 30 31 32 33 34 35 36 37 38 39 40 41 42 43 44 45 46 47 48 49 50

000
ASUS43 KEAX 010310
RWREAX

WEATHER ROUNDUP FOR EASTERN KANSAS AND NORTHWEST MISSOURI
NATIONAL WEATHER SERVICE KANSAS CITY/PLEASANT HILL MO
1000 PM CDT TUE SEP 30 2014

KSZ040-057-103>105-MOZ028-029-037-043-010400-
...KANSAS CITY METROPOLITAN AREA...

CITY           SKY/WX    TMP DP  RH WIND       PRES   REMARKS
K.C. INTL      CLOUDY    72  60  66 SE10      29.78F
K.C. DOWNTOWN  MOCLDY    77  58  51 SE13      29.78F
LEES SUMMIT    PTCLDY    73  59  61 S6        29.82S
OLATHE - IXD   PTCLDY    71  59  65 SE10      29.80F
OLATHE - OJC   PTCLDY    70  59  68 SE9       29.79F
LAWRENCE       PTCLDY    69  60  73 SE9       29.77F

$$

MOZ001>008-011>017-020>025-030>033-038>040-044>046-053-054-010400-
...NORTHERN AND CENTRAL MISSOURI...

CITY           SKY/WX    TMP DP  RH WIND       PRES   REMARKS
ST. JOSEPH     CLOUDY    73  59  61 SE9       29.78S
MOSBY          PTCLDY    70  59  68 SE6       29.79F
WHITEMAN AFB   CLEAR     69  59  69 SE8       29.83S
CLINTON        CLEAR     70  63  78 CALM      29.84S HAZE
SEDALIA        CLEAR     67  59  75 SE5       29.85S
WARSAW         NOT AVBL
MARSHALL       CLEAR     72  61  68 SE5       29.84S
CHILLICOTHE      N/A     72  62  71 SE7       29.84S
MOBERLY        CLEAR     68  61  77 E7        29.87F
KIRKSVILLE     CLEAR     66  32  28 E9        29.88S

$$

MOZ041-047>049-056>058-063>065-088>090-097-010400-
...EASTERN AND SOUTHERN MISSOURI...

CITY           SKY/WX    TMP DP  RH WIND       PRES   REMARKS
ST. LOUIS INTL CLEAR     72  59  63 E8        29.90R
SPIRIT OF STL  CLEAR    N/A N/A N/A CALM      29.88R
COLUMBIA       CLEAR     69  58  67 E6        29.87S
JEFFERSON CITY PTCLDY    67  60  78 SE3       29.86R
HANNIBAL       CLEAR     66  57  72 E6        29.90S
ROLLA          CLEAR     68  53  58 S6        29.89R
LEBANON        CLEAR     68  54  60 SE6       29.90S
OSAGE BEACH    CLEAR     68  57  68 SE3       29.88R
SPRINGFIELD    CLEAR     67  55  65 SE7       29.87S
BRANSON        CLEAR     68  57  68 SE6       29.89S
NEVADA         CLEAR     66  59  77 SE6       29.84S HAZE
JOPLIN         CLEAR     72  60  66 SE10      29.83S
WEST PLAINS    CLEAR     61  54  77 CALM      29.92R

$$

IAZ060-094-KSZ022-034>040-054-083-096-NEZ052-066-093-010400-
...KANSAS...SOUTHEAST NEBRASKA AND IOWA...

CITY           SKY/WX    TMP DP  RH WIND       PRES   REMARKS
TOPEKA         MOCLDY    76  61  59 SE14      29.75S
MANHATTAN      CLOUDY    77  62  59 S17G25    29.70S
EMPORIA        MOCLDY    73  62  68 SE15      29.76R
CHANUTE        CLEAR     72  62  71 SE10      29.81R
WICHITA        CLOUDY    77  61  57 SE18      29.71S
OMAHA          CLOUDY    66  62  87 SE9       29.78S
LINCOLN        LGT RAIN  65  63  93 SE9       29.77S
FALLS CITY     CLOUDY    67  65  93 NW5       29.77R THUNDER
LAMONI         CLOUDY    67  61  81 E7        29.85R
DES MOINES     LGT RAIN  66  57  72 SE10      29.87R

$$




USA.gov is the U.S. government's official web portal to all federal, state and local government web resources and services.